Probability
3 1 0 0 0 0 1 2 2 1 1 0 0 0 0 0 0 0 0 1 4 10 11 7 4 3 3 3 3 6 8 8 7 6 4 4 4 3 2 3 3 3 3
4 2 1 1 1 1 2 4 4 4 3 1 1 1 0 0 0 0 1 1 5 10 10 6 3 3 2 2 3 5 7 7 6 5 4 3 4 3 3 4 4 4 4
6 4 2 2 3 4 4 6 6 6 4 3 2 1 0 0 1 1 2 3 4 7 7 5 4 4 3 3 4 5 6 6 6 5 4 3 3 3 3 4 5 6 6
8 6 5 5 7 7 7 7 7 6 5 4 3 2 1 1 2 3 3 3 4 4 5 6 7 6 6 6 6 6 6 6 6 5 4 4 3 3 4 4 6 6 6
11 10 9 8 9 8 8 7 7 6 6 5 5 3 2 3 3 3 3 3 3 3 4 6 8 8 8 8 7 7 7 7 6 5 4 3 3 4 4 5 6 6 6
13 13 11 10 9 8 8 7 6 7 6 6 6 4 3 3 3 3 4 3 3 3 3 4 6 8 9 9 9 9 8 8 7 6 4 4 3 3 4 5 6 6 6
15 15 13 11 9 9 7 6 6 6 6 6 6 4 3 3 3 4 4 4 3 3 3 4 5 8 9 9 9 9 9 9 9 8 7 5 4 3 3 3 4 4 4
20 18 16 13 11 10 9 7 7 6 5 5 5 4 3 3 3 3 4 4 3 3 4 4 5 7 9 9 7 7 8 9 9 10 10 8 6 5 3 3 3 3 2
24 22 18 15 12 10 9 8 7 6 6 5 5 4 3 3 3 3 3 3 2 2 3 4 4 6 7 6 5 5 6 7 9 9 10 9 9 7 5 3 3 2 1
23 22 19 16 13 11 9 7 7 7 7 7 6 5 4 3 3 2 1 1 0 0 2 3 3 3 4 3 2 2 3 4 6 6 7 7 8 8 5 3 2 1 0
21 20 18 15 13 11 8 7 6 7 7 8 9 7 5 3 2 1 0 0 0 0 1 2 1 1 2 1 0 1 1 1 2 2 3 4 6 6 5 4 2 1 1
20 18 16 14 13 11 10 8 7 7 8 8 9 8 6 4 2 0 1 1 1 1 1 1 0 0 0 0 0 0 0 0 0 0 1 1 3 3 5 6 4 3 2
19 18 15 14 13 12 11 10 9 8 8 7 7 7 6 5 3 1 1 2 2 1 1 0 0 0 0 0 0 0 0 0 0 0 0 0 1 1 3 5 5 3 2
18 18 16 14 13 13 12 10 9 8 6 5 5 4 4 4 3 2 1 1 1 1 0 0 0 0 0 0 0 0 0 0 0 0 0 0 0 0 1 2 2 1 1
17 17 16 14 12 13 12 9 8 6 4 3 3 3 3 3 3 2 1 0 0 0 0 0 0 0 0 0 0 1 1 0 0 0 0 0 0 0 0 0 0 0 0
15 15 15 14 13 12 11 9 8 6 5 3 3 3 3 3 3 2 1 1 1 1 0 0 0 0 0 0 0 1 2 1 1 0 0 0 0 0 0 0 0 0 0
13 14 14 13 13 12 11 10 9 8 6 5 4 4 3 3 2 1 1 2 2 2 1 0 0 0 0 0 0 1 2 2 2 1 0 0 0 0 0 0 0 0 0
9 9 10 10 11 11 10 9 9 9 7 6 5 4 3 2 1 1 1 2 2 2 2 1 0 0 0 0 0 0 1 2 3 2 1 0 0 0 0 0 0 0 0
3 4 5 7 8 8 8 7 7 7 6 5 4 3 2 1 0 0 1 1 1 1 2 1 0 0 0 0 0 0 0 1 2 2 1 0 0 0 0 0 0 0 0
2 1 2 4 5 6 5 5 5 6 5 4 2 1 1 0 0 0 0 0 0 0 1 1 0 0 0 0 0 0 0 0 1 1 1 0 0 0 0 0 0 0 0
2 1 1 2 4 4 3 3 4 4 4 3 1 0 0 0 0 0 0 0 0 0 0 0 0 0 0 0 0 0 0 0 0 0 0 0 0 0 0 0 0 0 0
4 3 1 1 3 3 2 1 2 3 3 2 1 0 0 0 0 0 0 0 0 0 0 0 0 0 0 0 0 0 0 0 0 0 0 0 0 0 0 0 0 0 0
6 5 3 2 3 3 1 0 1 2 2 2 1 1 0 0 0 0 0 0 0 0 0 0 0 0 0 0 0 0 0 0 0 0 0 0 0 0 0 0 0 0 0
6 6 4 3 3 2 1 0 0 1 2 3 3 2 1 0 0 0 0 0 0 0 0 0 0 0 0 0 0 0 0 0 0 0 0 0 0 0 0 0 0 0 0
6 6 4 3 3 3 1 0 0 1 2 3 3 2 1 0 0 0 0 0 0 0 0 0 0 0 0 0 0 0 0 0 0 0 0 0 0 0 0 0 0 0 0
6 6 4 3 3 3 2 1 0 0 1 3 3 2 1 0 0 0 0 0 0 0 0 0 0 0 0 0 0 0 0 0 0 0 0 0 0 0 0 0 0 0 0
Wind_Speed
3 3 2 2 2 2 2 1 1 1 1 1 1 2 2 2 3 3 3 11 13 13 14 13 13 12 12 11 10 10 10 10 10 9 9 9 9 9 9 9 8 8 7
4 3 3 3 2 2 2 2 3 2 1 1 1 1 1 2 3 3 3 6 12 12 12 13 13 12 11 11 10 10 10 10 10 9 9 9 9 9 9 9 8 8 8
5 4 3 3 3 3 3 2 2 1 1 1 1 1 2 2 3 4 4 3 4 9 11 12 12 12 11 11 11 11 10 10 10 9 9 9 10 9 9 9 9 8 8
6 4 3 3 3 3 2 2 2 1 1 1 1 2 2 2 2 3 3 3 3 4 7 11 11 11 11 12 11 11 11 11 10 10 10 10 10 10 9 9 8 8 8
6 5 4 3 3 3 2 3 2 2 2 2 2 2 2 2 3 3 3 4 4 4 4 7 11 12 12 13 12 12 12 12 11 10 10 10 10 10 10 10 9 9 9
6 5 4 3 3 3 2 2 2 2 2 2 2 1 2 2 2 3 3 3 3 5 4 5 5 7 12 12 13 13 13 13 12 11 11 11 10 10 10 11 10 10 9
6 5 4 3 3 3 3 3 2 2 1 1 1 1 2 2 2 2 2 2 3 4 4 4 4 4 4 10 12 13 13 13 13 12 11 11 10 9 10 10 10 10 10
6 6 5 4 4 3 3 3 2 2 1 1 2 1 1 3 2 2 2 3 4 3 3 5 4 4 4 3 6 12 13 13 13 13 12 11 10 10 10 11 10 10 10
6 6 6 5 4 4 4 3 3 3 2 1 2 3 2 3 2 2 2 3 3 3 3 3 5 5 5 4 4 8 11 12 12 13 11 11 10 10 10 10 10 10 10
5 5 6 5 5 4 4 4 4 3 3 2 1 1 2 3 2 1 3 2 2 3 3 4 4 5 5 4 5 8 10 10 12 12 12 12 11 11 11 11 11 11 11
4 4 5 5 5 4 4 4 3 3 3 3 2 2 1 0 1 2 2 2 2 2 3 3 3 4 4 4 4 7 10 11 12 12 12 13 13 12 12 12 11 11 11
3 4 4 4 4 4 4 4 4 4 3 3 3 2 2 2 2 2 2 2 2 3 2 2 3 3 4 4 7 9 10 10 11 12 12 13 13 13 13 13 13 12 12
2 4 4 4 4 4 4 4 4 4 4 4 4 3 3 2 2 2 2 2 2 2 2 2 2 3 3 3 5 9 9 10 10 11 12 12 12 13 13 13 13 13 12
3 4 4 4 4 4 4 4 3 3 3 3 4 4 2 3 3 3 3 3 1 2 2 3 2 3 3 3 5 8 5 9 10 11 11 12 12 12 12 12 12 12 11
3 3 3 3 3 4 4 4 3 4 4 4 4 4 3 3 3 3 3 3 3 2 3 3 2 2 3 3 5 4 5 7 9 10 11 11 12 12 12 11 11 11 10
3 3 3 4 3 3 3 3 3 3 3 4 3 4 4 3 3 3 3 3 3 4 3 3 3 2 3 3 5 4 5 9 11 11 12 12 12 12 12 12 11 11 11
3 3 4 4 3 3 3 3 3 4 4 4 3 4 4 3 3 3 2 2 3 3 4 3 2 2 2 2 2 3 3 5 6 10 11 12 12 13 13 13 12 12 11
3 3 3 3 3 3 3 4 4 4 4 4 4 4 4 3 3 3 3 3 3 3 3 3 3 2 3 3 3 3 3 4 4 8 10 11 12 12 13 13 12 12 11
3 3 3 3 4 4 4 4 4 4 4 5 5 5 5 4 4 3 3 3 3 3 2 3 3 2 2 2 1 2 3 2 4 5 8 10 11 11 12 12 12 12 11
3 3 3 4 4 4 4 4 3 3 4 4 4 5 5 5 5 5 4 4 3 2 2 2 2 2 2 2 1 2 2 2 3 3 3 5 7 10 11 11 11 12 12
3 3 3 3 4 4 4 4 4 4 4 4 4 4 4 5 6 5 4 4 3 2 2 2 2 2 2 1 2 2 3 2 3 2 2 3 3 3 5 8 10 11 11
3 3 3 3 3 3 3 4 3 3 3 4 4 4 4 4 5 5 6 6 6 4 4 3 2 3 4 3 3 2 2 1 3 2 2 3 2 4 4 5 8 11 11
3 3 3 3 3 4 4 4 4 3 3 4 4 3 3 3 3 3 4 5 6 7 7 5 5 5 5 5 3 3 3 3 4 3 2 3 2 4 4 5 9 10 11
3 3 3 4 3 4 5 5 4 3 3 3 4 4 4 3 3 3 3 3 4 5 6 5 6 6 6 5 5 4 4 3 2 2 2 2 2 3 3 3 8 10 10
3 3 3 3 4 4 5 5 4 2 2 3 3 4 4 4 5 5 3 3 4 4 6 7 7 7 7 7 5 2 1 1 2 2 2 2 2 2 2 3 5 9 10
3 3 3 3 4 4 5 5 5 2 2 2 3 3 5 5 5 5 4 4 5 5 4 3 4 4 4 5 6 5 4 3 2 2 2 3 2 1 2 2 2 3 4
Wind_Direction
172 174 177 179 186 180 182 189 200 199 206 215 189 174 174 188 200 199 204 203 198 197 197 195 197 202 203 202 203 201 199 197 195 194 193 192 193 193 193 193 192 192 193
172 172 177 183 189 184 184 184 191 191 203 185 184 177 180 174 198 202 205 205 201 200 201 201 202 203 205 205 204 201 200 202 199 197 196 194 195 193 195 194 193 194 194
176 171 174 184 194 190 182 178 186 177 192 192 221 220 215 212 202 203 197 194 199 205 207 206 205 205 205 207 209 209 206 205 203 200 199 199 197 195 197 197 197 197 197
178 170 174 192 193 181 177 180 177 175 207 208 221 234 229 223 216 200 185 186 193 204 211 207 205 207 207 209 212 212 210 208 208 206 206 205 201 198 198 200 200 200 200
180 174 180 191 185 181 187 195 178 176 196 224 225 229 228 219 221 209 196 192 198 203 203 208 209 209 210 213 213 213 212 210 210 211 212 209 205 202 201 203 203 203 202
181 175 180 187 180 178 187 185 173 180 193 204 233 251 247 233 222 211 209 203 206 208 205 208 206 214 216 215 214 213 214 213 211 211 215 213 209 208 207 205 203 204 205
179 175 181 179 179 183 186 172 161 169 206 158 90 335 313 275 237 224 210 205 211 209 205 206 203 206 216 218 217 215 215 215 213 212 214 212 208 208 208 206 206 208 210
180 184 178 182 184 177 174 172 156 156 199 154 134 106 334 328 310 239 203 200 209 208 210 213 209 207 213 210 217 217 216 217 218 216 214 210 208 210 210 207 207 208 211
183 181 182 181 182 178 188 189 173 169 184 204 157 147 161 230 288 306 250 218 204 202 213 212 212 212 212 209 214 220 218 217 219 216 213 208 207 209 210 209 208 210 212
184 181 182 179 179 182 187 192 181 178 162 183 217 195 183 168 167 288 313 285 230 216 218 220 222 218 210 205 210 215 217 217 218 217 214 211 209 211 212 213 214 215 218
188 182 181 175 177 183 187 186 180 182 174 175 184 186 190 178 166 163 259 297 303 258 226 223 219 215 209 206 210 219 218 218 218 217 217 214 213 213 213 215 217 219 223
189 188 180 176 178 184 190 190 188 187 185 178 183 180 172 176 199 176 209 247 260 271 255 229 219 216 212 209 221 223 219 218 218 218 219 217 216 217 218 220 221 223 226
194 202 191 185 186 188 188 182 185 194 191 188 195 199 194 197 187 178 182 219 249 277 289 265 230 217 217 209 226 228 222 219 220 221 220 219 220 222 221 222 224 226 227
197 194 181 183 188 185 187 183 189 200 194 203 212 205 202 210 197 190 184 177 228 278 276 265 261 224 222 213 225 222 220 218 219 218 219 220 222 223 223 222 224 225 225
181 177 176 180 184 185 190 185 196 205 198 206 215 215 216 220 212 209 196 183 181 223 260 257 253 244 225 218 223 211 209 217 220 221 221 222 223 225 224 222 223 223 222
176 168 176 184 189 191 194 190 203 212 206 215 212 210 217 219 219 215 209 202 188 190 234 250 243 252 238 239 223 214 215 219 224 224 224 222 220 220 221 220 221 223 224
172 177 182 189 201 199 191 186 210 210 208 219 221 213 224 217 218 221 211 200 202 190 224 260 255 256 243 243 246 237 231 225 230 229 227 223 222 220 220 220 220 222 222
181 180 175 184 210 210 201 198 212 217 216 221 223 216 226 222 218 218 209 211 209 204 204 239 267 262 250 239 238 243 247 240 235 235 227 226 225 224 220 220 220 221 221
188 186 178 190 214 219 213 214 213 220 222 223 219 214 221 210 219 217 208 211 214 216 204 214 252 255 259 256 248 258 256 258 255 244 228 227 227 226 223 223 222 222 222
192 198 199 203 207 210 217 219 214 214 221 228 228 224 219 209 213 213 212 215 209 207 207 213 244 259 259 269 216 245 270 260 262 260 244 230 228 228 228 228 226 223 223
203 201 200 208 209 211 218 216 216 220 224 233 239 237 231 225 220 214 212 207 198 200 209 219 242 262 263 262 242 234 246 264 264 244 243 242 225 228 229 231 227 225 225
213 203 204 205 213 226 233 226 220 218 223 226 239 246 241 238 237 229 223 213 197 195 206 212 231 240 250 243 235 232 228 244 268 251 203 253 216 233 235 228 227 225 226
205 211 215 210 219 229 221 228 243 230 231 232 232 233 240 240 230 232 234 229 225 221 209 201 217 230 230 229 215 228 229 223 233 233 184 245 231 239 240 234 226 226 228
203 213 219 221 224 230 218 227 241 232 237 242 229 217 214 230 231 218 228 237 240 239 230 217 219 229 230 227 210 209 215 229 259 253 179 226 243 243 253 238 229 225 228
211 216 219 218 223 236 228 233 228 221 235 251 246 228 215 222 237 224 216 238 255 260 255 243 236 238 239 237 215 178 193 194 257 266 204 195 234 247 262 258 241 228 230
214 217 231 231 223 232 232 230 217 207 233 257 268 251 230 228 241 230 213 219 245 255 259 267 260 256 245 239 219 200 196 196 212 253 228 185 215 192 278 272 248 233 232